This demonstration page uses our WeatherBlox Daily Observations layout. Learn more.

Left ArrowRight Arrow

44.89941, -97.11507

Hourly Observations for April 19, 2019

Temp ( °F °C ) Dew Point ( °F °C ) Humidity (%) Winds ( mph kmh ) Pressure ( in mb ) Visibility ( mi km ) Precip ( " mm )
12:53 am 00:53 Clear 33 0.6 31 -0.6 92 92 Calm 30.11 1020 10 16 0.00 0.00
1:53 am 01:53 Clear 32 0 29 -1.7 88 88 Calm 30.10 1019 10 16 0.00 0.00
2:53 am 02:53 Clear 31 -0.6 28 -2.2 89 89 Calm 30.09 1019 10 16 0.00 0.00
3:53 am 03:53 Clear 31 -0.6 29 -1.7 92 92 NNW 7 11 30.09 1019 10 16 0.00 0.00
4:46 am 04:46 Clear with Mist and Fog 30 -1.1 28 -2.2 92 92 Calm 30.14 1021 2 3 0.00 0.00
4:50 am 04:50 Clear with Mist and Fog 28 -2 28 -2 100 100 Calm 30.14 1021 1 1 0.00 0.00
4:53 am 04:53 Clear with Mist and Fog 30 -1.1 28 -2.2 92 92 Calm 30.08 1019 1 2 0.00 0.00
5:05 am 05:05 Clear with Mist and Fog 29 -1.7 28 -2.2 96 96 Calm 30.14 1021 2 3 0.00 0.00
5:08 am 05:08 Clear with Mist and Fog 29 -1.7 27 -2.8 92 92 Calm 30.14 1021 3 5 0.00 0.00
5:53 am 05:53 Clear with Mist and Fog 30 -1.1 29 -1.7 96 96 Calm 30.08 1019 6 10 0.00 0.00
6:53 am 06:53 Sunny 30 -1.1 29 -1.7 96 96 SSE 3 6 30.09 1019 10 16 0.00 0.00
7:53 am 07:53 Sunny 33 0.6 32 0 96 96 Calm 30.11 1020 10 16 0.00 0.00
8:53 am 08:53 Sunny 40 4.4 35 1.7 83 83 S 5 7 30.11 1020 10 16 0.00 0.00
9:53 am 09:53 Sunny 45 7.2 36 2.2 71 71 SSW 6 9 30.10 1019 10 16 0.00 0.00
10:53 am 10:53 Sunny 50 10 37 2.8 61 61 SW 13 20 30.08 1019 10 16 0.00 0.00
11:53 am 11:53 Sunny 53 11.7 38 3.3 57 57 SW 12 19 30.08 1019 10 16 0.00 0.00
12:53 pm 12:53 Sunny 54 12.2 38 3.3 55 55 SSW 9 15 30.05 1018 10 16 0.00 0.00
1:53 pm 13:53 Sunny 55 12.8 39 3.9 55 55 SSW 12 19 30.02 1017 10 16 0.00 0.00
2:53 pm 14:53 Sunny 57 13.9 37 2.8 47 47 SW 14 22 29.99 1016 10 16 0.00 0.00
3:53 pm 15:53 Sunny 58 14.4 38 3.3 48 48 SSW 15 24 29.97 1015 10 16 0.00 0.00
4:53 pm 16:53 Sunny 59 15 38 3.3 46 46 SW 14 22 29.94 1014 10 16 0.00 0.00
5:53 pm 17:53 Sunny 59 15 37 2.8 44 44 SSW 14 22 29.92 1013 10 16 0.00 0.00
6:53 pm 18:53 Sunny 58 14.4 37 2.8 46 46 SSW 13 20 29.91 1013 10 16 0.00 0.00
7:53 pm 19:53 Sunny 55 12.8 38 3.3 53 53 S 9 15 29.90 1012 10 16 0.00 0.00
8:53 pm 20:53 Clear 50 10 39 3.9 66 66 SSE 10 17 29.88 1012 10 16 0.00 0.00
9:53 pm 21:53 Clear 49 9.4 37 2.8 64 64 S 13 20 29.87 1011 10 16 0.00 0.00
10:53 pm 22:53 Clear 48 8.9 38 3.3 68 68 SSE 13 20 29.85 1011 10 16 0.00 0.00
11:53 pm 23:53 Clear 47 8.3 38 3.3 71 71 SSE 14 22 29.83 1010 10 16 0.00 0.00

Powered by AerisWeather